Location: Bucharest
(44.4268°N, 26.1025°E)
Time: 02:08:37
(UTC+03:00)

CUBESAT XI-V - Pass Details

Date: 28 June 2022
Orbit: 668 x 690 km, 98.1° (Epoch: 16 August)

Event Time Altitude Azimuth Distance (km) Brightness Sun altitude
Exits shadow 04:09:51 15° 240° (WSW) 1,801 ? -11.8°
Maximum altitude 04:11:38 18° 268° (W) 1,636 ? -11.6°
Drops below altitude 10° 04:14:47 10° 312° (NW) 2,112 ? -11.3°
Sets 04:17:41 0° 331° (NNW) 3,029 ? -10.9°
